Flag for Canada Weather past 2 weeks in Camrose, Alberta, Canada

Now
30 °F

Ice fog.


Feels Like: 30 °F
Forecast: 40 / 63 °F
Wind: 2 mph from North

Location: Edmonton International

Current Time: Aug 23, 2014 at 7:46:02 AM

Latest Report: Aug 23, 2014 at 7:00 AM


Visibility: 3 mi

Pressure: 30.41 "Hg

Humidity: 100%

Dew point: 30 °F

Location of CamroseLocation

Historic Weather in Camrose — Graph

°F

Camrose temperature yesterday

Maximum temperature yesterday: 63 °F (at 3:00 PM)
Minimum temperature yesterday: 30 °F (at 6:00 AM)
Average temperature yesterday: 50 °F

Past Weeks' High & Low Weather Summary

 TemperatureHumidityPressure
High84 °F (Aug 12, 3:00 PM)100% (Aug 8, 10:49 PM)30.43 "Hg (Aug 8, 10:49 PM)
Low30 °F (Aug 22, 6:00 AM)32% (Aug 11, 5:00 PM)29.69 "Hg (Aug 19, 12:00 AM)
Average62 °F75%30.01 "Hg
* Reported Aug 8 6:00 AM — Aug 23 6:49 AM, Camrose, Weather by CustomWeather, © 2014

Note: Actual official high and low records may vary slightly from our data, if they occured in-between our weather recording intervals... More about our weather records

Advertising

Camrose weather history for previous 24 hours

 ConditionsComfort  
Time TempWeatherWind HumidityBarometerVisibility
6:49 AM
Aug 23
32 °FIce fog.2 mph93%30.41 "Hg1 mi
6:00 AM30 °FFog.2 mph93%30.42 "Hg7 mi
5:00 AM32 °FPassing clouds.2 mph93%30.42 "Hg15 mi
4:00 AM32 °FPassing clouds.No wind93%30.42 "Hg15 mi
3:00 AM37 °FPassing clouds.No wind87%30.42 "Hg15 mi
2:00 AM37 °FPassing clouds.7 mph93%30.41 "Hg15 mi
1:00 AM39 °FPassing clouds.3 mph93%30.42 "Hg15 mi
12:00 AM39 °FPartly cloudy.6 mph87%30.42 "Hg15 mi
11:00 PM
Aug 22
43 °FPassing clouds.7 mph81%30.42 "Hg15 mi
10:00 PM41 °FPassing clouds.6 mph76%30.43 "Hg15 mi
9:00 PM52 °FScattered clouds.7 mph58%30.41 "Hg15 mi
8:00 PM57 °FScattered clouds.8 mph41%30.39 "Hg15 mi
7:00 PM59 °FPartly sunny.9 mph39%30.40 "Hg15 mi
6:00 PM59 °FPartly sunny.8 mph39%30.41 "Hg15 mi
5:00 PM61 °FPartly sunny.7 mph42%30.38 "Hg15 mi
4:00 PM61 °FPartly sunny.9 mph39%30.38 "Hg15 mi
3:00 PM63 °FPartly sunny.9 mph34%30.39 "Hg15 mi
2:00 PM61 °FBroken clouds.8 mph39%30.39 "Hg15 mi
1:00 PM59 °FBroken clouds.6 mph42%30.38 "Hg15 mi
12:00 PM61 °FBroken clouds.8 mph39%30.37 "Hg15 mi
11:00 AM57 °FBroken clouds.3 mph48%30.37 "Hg15 mi
10:00 AM55 °FBroken clouds.7 mph55%30.37 "Hg15 mi
9:00 AM52 °FScattered clouds.2 mph67%30.37 "Hg15 mi
8:00 AM43 °FScattered clouds.3 mph93%30.37 "Hg12 mi
7:00 AM34 °FFog.No wind93%30.38 "Hg10 mi
Weather by CustomWeather, © 2014

See weather overviewHow to use our weather pages